Погода в Крузейру-ду-Сул

Бразилия     29°30′47″S   51°59′17″W
темп.,
°C
ветер,
м/с
пор.,
м/с
влажн.,
%
обл.,
%
осадки,
мм/ч
давл.,
гПа
погр.,
м
27 февраля, сб
сб2700:00+18в12890 0.0 101767
03:00+17в11950 0.0 101737
06:00+16ссз01970 0.0 101823
09:00+23юв13710 0.0 1020457
12:00+29юв345310 0.0 10191356
15:00+31юв55466 0.0 10171949
18:00+26юв496631 0.1 10161267
21:00+21юв3107315 0.2 1018505
28 февраля, вс
вс2800:00+18вюв13880 0.0 101981
03:00+16в11960 0.0 101723
06:00+16вюв01970 0.0 101825
09:00+23вюв25720 0.0 1018555
12:00+29юв46500 0.0 10171420
15:00+30юв57430 0.0 10141772
18:00+26юв59655 0.0 10131243
21:00+21юв210866 0.0 1014587
1 марта, пн
пн100:00+20ююв12951 0.0 101482
03:00+18ссв11982 0.0 101223
06:00+18св01983 0.0 101323
09:00+25всв127315 0.0 1013468
12:00+31ююв11504 0.0 10121088
15:00+32ююв44442 0.0 10101898
18:00+27юв48718 0.3 1010791
21:00+22ююв13904 0.3 101275
2 марта, вт
вт200:00+20ю11980 0.0 101224
03:00+20юз009924 0.0 101125
06:00+20в019792 0.0 101234
09:00+23всв118396 0.0 1013358
12:00+31ююз115793 0.0 1012818
15:00+33ю334773 0.0 10111724
18:00+28юв576429 0.1 1010940
21:00+23ююв278416 0.1 1013348
3 марта, ср
ср300:00+20ю12950 0.0 101446
03:00+20ю119617 0.0 101441
06:00+20ююв119763 0.0 101461
09:00+26в117560 0.0 1016495
12:00+30ю225767 0.0 1015983
15:00+32ююв445136 0.0 10131451
18:00+28юв476317 0.1 1012949
21:00+23ююв148018 0.1 1014163